Location: Aragnouet
(42.7874°N, 0.2165°E)
Time: 12:59:45
(UTC+00:00)

Cosmos 407 Rocket - Pass Details

Date: 09 April 2020
Orbit: 743 x 787 km, 74.1° (Epoch: 26 May)

Event Time Altitude Azimuth Distance (km) Brightness Sun altitude
Rises 19:01:12 0° 182° (S) 3,187 6.6 -5.5°
Reaches altitude 10° 19:03:37 10° 177° (S) 2,262 5.8 -5.9°
Maximum altitude 19:08:31 48° 104° (ESE) 974 3.7 -6.8°
Drops below altitude 10° 19:13:25 10° 31° (NNE) 2,265 5.8 -7.6°
Sets 19:15:50 0° 26° (NNE) 3,192 6.6 -8.1°
